Date String (YYYY-MM-DD hh:mm:ss) UTC,Instrument flags,absolute air pressure of the measurement (hPa),sample flow rate (lpm),inlet stack bypass flow (lpm),air temperature of the measurement (°C),ambient temperature measured by the external sensor (°C),aerosol sample conditioner tube jacket temperature (°C),OPC LED temperature (°C),internal box temperature (°C),relative humidity of the measurement (%),span deviation,mass concentration of particles derived from Lorenz-Mie calculation of OPC scattering (μg/m³),mass concentration of particles derived from Lorenz-Mie calculation of OPC scattering (μg/m³),mass concentration of particles derived from Lorenz-Mie calculation of OPC scattering (μg/m³)
DateTimeUTC,F1_M11,P_M11,Q1_M11,Q2_M11,T1_M11,T2_M11,T3_M11,T4_M11,T5_M11,U1_M11,ZSPAN_M11,X0_M11,X2_M11,X1_M11
2023-12-26 18:00:00,SystemResetWarning,0823.8,4.99,000.00,018.8,018.0,000.0,027.2,020.0,13.6,0000.0,0007.38,0001.89,0000.84
2023-12-26 18:01:00,SystemResetWarning,0823.8,5.00,000.00,018.8,018.0,000.0,027.2,020.0,13.5,0000.0,0007.35,0001.93,0000.85
2023-12-26 18:02:00,SystemResetWarning,0823.7,5.01,000.00,018.8,018.0,000.0,027.2,020.0,13.5,0000.0,0007.99,0001.90,0000.84
2023-12-26 18:03:00,SystemResetWarning,0823.8,5.01,000.00,018.8,017.9,000.0,027.2,020.0,13.6,0000.0,0007.66,0001.84,0000.83
2023-12-26 18:04:00,SystemResetWarning,0823.8,5.00,000.00,018.8,017.9,000.0,027.2,020.0,13.5,0000.0,0007.20,0001.80,0000.82
2023-12-26 18:05:00,SystemResetWarning,0823.8,4.99,000.00,018.8,017.9,000.0,027.2,020.0,13.2,0000.0,0007.60,0001.81,0000.82
2023-12-26 18:06:00,SystemResetWarning,0823.7,4.99,000.00,018.8,017.9,000.0,027.2,020.0,13.4,0000.0,0007.56,0001.82,0000.83
2023-12-26 18:07:00,SystemResetWarning,0823.8,5.00,000.00,018.7,017.9,000.0,027.2,020.0,13.6,0000.0,0007.78,0001.78,0000.84
2023-12-26 18:08:00,SystemResetWarning,0823.7,5.00,000.00,018.7,017.9,000.0,027.2,020.0,13.6,0000.0,0007.93,0001.67,0000.84
2023-12-26 18:09:00,SystemResetWarning,0823.7,5.01,000.00,018.7,017.9,000.0,027.2,020.0,13.7,0000.0,0008.48,0001.66,0000.85
2023-12-26 18:10:00,SystemResetWarning,0823.7,5.00,000.00,018.7,017.9,000.0,027.2,020.0,13.8,0000.0,0008.69,0001.66,0000.86
2023-12-26 18:11:00,SystemResetWarning,0823.7,5.00,000.00,018.7,017.9,000.0,027.2,020.0,13.9,0000.0,0008.69,0001.64,0000.87
2023-12-26 18:12:00,SystemResetWarning,0823.7,4.99,000.00,018.7,017.9,000.0,027.2,020.0,13.9,0000.0,0008.06,0001.58,0000.89
2023-12-26 18:13:00,SystemResetWarning,0823.7,5.00,000.00,018.7,018.0,000.0,027.2,020.0,13.8,0000.0,0007.70,0001.62,0000.93
2023-12-26 18:14:00,SystemResetWarning,0823.7,4.99,000.00,018.7,018.0,000.0,027.2,020.0,14.1,0000.0,0007.75,0001.67,0000.98
2023-12-26 18:15:00,SystemResetWarning,0823.6,5.00,000.00,018.7,018.0,000.0,027.2,020.0,14.3,0000.0,0007.80,0001.72,0001.03
2023-12-26 18:16:00,SystemResetWarning,0823.6,5.00,000.00,018.7,018.0,000.0,027.2,020.0,14.0,0000.0,0007.14,0001.77,0001.08
2023-12-26 18:17:00,SystemResetWarning,0823.6,5.02,000.00,018.7,018.0,000.0,027.2,020.0,14.0,0000.0,0006.99,0001.77,0001.12
2023-12-26 18:18:00,SystemResetWarning,0823.6,5.00,000.00,018.7,018.0,000.0,027.2,020.0,13.9,0000.0,0006.25,0001.77,0001.16
2023-12-26 18:19:00,SystemResetWarning,0823.6,4.99,000.00,018.7,018.0,000.0,027.2,020.0,13.8,0000.0,0005.69,0001.84,0001.20
2023-12-26 18:20:00,SystemResetWarning,0823.6,5.00,000.00,018.7,018.0,000.0,027.2,020.0,14.0,0000.0,0004.66,0001.91,0001.24
2023-12-26 18:21:00,SystemResetWarning,0823.6,5.00,000.00,018.7,017.9,000.0,027.2,020.0,14.1,0000.0,0004.27,0001.92,0001.27
2023-12-26 18:22:00,SystemResetWarning,0823.6,5.00,000.00,018.7,017.9,000.0,027.2,020.0,14.1,0000.0,0004.17,0001.94,0001.30
2023-12-26 18:23:00,SystemResetWarning,0823.6,5.00,000.00,018.7,017.9,000.0,027.2,020.0,14.3,0000.0,0004.21,0001.98,0001.36
2023-12-26 18:24:00,SystemResetWarning,0823.6,5.00,000.00,018.7,017.9,000.0,027.2,020.0,14.0,0000.0,0003.63,0002.06,0001.42
2023-12-26 18:25:00,SystemResetWarning,0823.6,5.00,000.00,018.7,018.0,000.0,027.2,020.0,14.0,0000.0,0003.68,0002.10,0001.46
2023-12-26 18:26:00,SystemResetWarning,0823.6,5.00,000.00,018.7,018.0,000.0,027.2,020.0,14.0,0000.0,0003.86,0002.16,0001.50
2023-12-26 18:27:00,SystemResetWarning,0823.5,5.00,000.00,018.7,018.0,000.0,027.2,020.0,13.9,0000.0,0003.73,0002.13,0001.52
2023-12-26 18:28:00,SystemResetWarning,0823.5,5.00,000.00,018.7,018.0,000.0,027.2,020.0,13.7,0000.0,0003.72,0002.14,0001.53
2023-12-26 18:29:00,SystemResetWarning,0823.5,5.00,000.00,018.7,018.0,000.0,027.2,020.0,13.9,0000.0,0004.00,0002.24,0001.57
2023-12-26 18:30:00,SystemResetWarning,0823.5,5.00,000.00,018.7,018.0,000.0,027.2,020.0,13.7,0000.0,0004.42,0002.33,0001.61
2023-12-26 18:31:00,SystemResetWarning,0823.5,5.01,000.00,018.7,017.9,000.0,027.2,020.0,13.8,0000.0,0004.95,0002.40,0001.62
2023-12-26 18:32:00,SystemResetWarning,0823.5,5.00,000.00,018.7,017.9,000.0,027.2,020.0,14.0,0000.0,0005.04,0002.41,0001.62
2023-12-26 18:33:00,SystemResetWarning,0823.5,5.00,000.00,018.7,018.0,000.0,027.1,020.0,14.1,0000.0,0005.25,0002.43,0001.63
2023-12-26 18:34:00,SystemResetWarning,0823.4,5.00,000.00,018.7,018.0,000.0,027.1,020.0,14.2,0000.0,0005.40,0002.43,0001.63
2023-12-26 18:35:00,SystemResetWarning,0823.5,5.00,000.00,018.7,018.0,000.0,027.1,020.0,14.1,0000.0,0005.57,0002.41,0001.61
2023-12-26 18:36:00,SystemResetWarning,0823.4,5.00,000.00,018.7,018.0,000.0,027.1,020.0,13.9,0000.0,0006.29,0002.39,0001.58
2023-12-26 18:37:00,SystemResetWarning,0823.4,5.00,000.00,018.7,018.0,000.0,027.1,020.0,13.9,0000.0,0006.54,0002.36,0001.56
2023-12-26 18:38:00,SystemResetWarning,0823.4,5.00,000.00,018.7,018.0,000.0,027.1,020.0,14.1,0000.0,0006.91,0002.35,0001.54
2023-12-26 18:39:00,SystemResetWarning,0823.4,5.00,000.00,018.7,018.0,000.0,027.1,020.0,14.1,0000.0,0007.60,0002.37,0001.53
2023-12-26 18:40:00,SystemResetWarning,0823.4,5.00,000.00,018.7,018.0,000.0,027.1,020.0,14.1,0000.0,0007.91,0002.34,0001.52
2023-12-26 18:41:00,SystemResetWarning,0823.4,5.00,000.00,018.7,018.0,000.0,027.1,020.0,14.2,0000.0,0008.12,0002.29,0001.52
2023-12-26 18:42:00,SystemResetWarning,0823.4,5.01,000.00,018.7,018.0,000.0,027.1,020.0,14.4,0000.0,0008.52,0002.29,0001.54
2023-12-26 18:43:00,SystemResetWarning,0823.4,5.01,000.00,018.7,018.0,000.0,027.1,020.0,14.5,0000.0,0008.63,0002.30,0001.56
2023-12-26 18:44:00,SystemResetWarning,0823.4,5.00,000.00,018.7,018.0,000.0,027.1,020.0,14.2,0000.0,0008.58,0002.30,0001.56
2023-12-26 18:45:00,SystemResetWarning,0823.4,5.00,000.00,018.7,018.0,000.0,027.1,020.0,14.2,0000.0,0008.54,0002.30,0001.55
2023-12-26 18:46:00,SystemResetWarning,0823.4,5.00,000.00,018.8,018.0,000.0,027.1,020.0,14.4,0000.0,0008.41,0002.29,0001.55
2023-12-26 18:47:00,SystemResetWarning,0823.4,5.00,000.00,018.8,018.0,000.0,027.1,020.0,14.1,0000.0,0008.06,0002.30,0001.58
2023-12-26 18:48:00,SystemResetWarning,0823.4,5.00,000.00,018.8,018.0,000.0,027.1,020.0,14.2,0000.0,0007.88,0002.29,0001.58
2023-12-26 18:49:00,SystemResetWarning,0823.4,5.00,000.00,018.8,018.0,000.0,027.1,020.0,14.6,0000.0,0007.53,0002.28,0001.59
2023-12-26 18:50:00,SystemResetWarning,0823.4,5.00,000.00,018.7,018.0,000.0,027.1,020.0,14.7,0000.0,0006.97,0002.28,0001.60
2023-12-26 18:51:00,SystemResetWarning,0823.4,4.99,000.00,018.7,018.0,000.0,027.1,020.0,14.7,0000.0,0007.01,0002.30,0001.61
2023-12-26 18:52:00,SystemResetWarning,0823.4,5.00,000.00,018.7,018.0,000.0,027.1,020.0,14.7,0000.0,0006.45,0002.32,0001.61
2023-12-26 18:53:00,SystemResetWarning,0823.3,5.00,000.00,018.8,018.0,000.0,027.2,020.0,14.6,0000.0,0005.33,0002.30,0001.59
2023-12-26 18:54:00,SystemResetWarning,0823.3,5.00,000.00,018.8,018.0,000.0,027.2,020.0,14.5,0000.0,0004.91,0002.28,0001.58
2023-12-26 18:55:00,SystemResetWarning,0823.3,5.00,000.00,018.8,018.0,000.0,027.2,020.0,14.5,0000.0,0005.18,0002.27,0001.58
2023-12-26 18:56:00,SystemResetWarning,0823.2,5.00,000.00,018.8,018.0,000.0,027.2,020.0,14.6,0000.0,0005.70,0002.25,0001.57
2023-12-26 18:57:00,SystemResetWarning,0823.1,5.00,000.00,018.8,017.9,000.0,027.2,020.0,14.5,0000.0,0005.85,0002.25,0001.56
2023-12-26 18:58:00,SystemResetWarning,0823.1,5.00,000.00,018.8,017.9,000.0,027.2,020.0,14.7,0000.0,0005.81,0002.24,0001.54
2023-12-26 18:59:00,SystemResetWarning,0823.1,5.00,000.00,018.8,017.9,000.0,027.2,020.0,14.9,0000.0,0005.91,0002.30,0001.56
